EW3861 Weather Reports


time (UTC)temp
F
wind
direction
speed
knots
gust
knots
rain 1hr
in
rain 24hr
in
rain mn
in
humidity
%
barometer
mb
20260831114511 61 184 0.0 0.0 0.00 0.00 0.00 96 1018.7
20260831113011 60 184 0.0 0.0 0.00 0.00 0.00 96 1018.5
20260831111508 60 184 0.0 0.0 0.00 0.00 0.00 95 1018.3
20260831110007 60 184 0.0 0.0 0.00 0.00 0.00 95 1018.3
20260831104505 60 184 0.0 0.0 0.00 0.00 0.00 95 1018.1
20260831103005 60 184 0.0 0.0 0.00 0.00 0.00 95 1018.1
20260831101503 60 184 0.0 0.0 0.00 0.00 0.00 94 1017.8
20260831100001 61 184 0.0 0.0 0.00 0.00 0.00 94 1017.7
20260831094559 61 184 0.0 0.0 0.00 0.00 0.00 94 1017.5
20260831093057 61 184 0.0 0.0 0.00 0.00 0.00 94 1017.4
20260831091555 62 184 0.0 0.0 0.00 0.00 0.00 94 1017.2
20260831090106 62 184 0.0 0.0 0.00 0.00 0.00 94 1017.2
20260831084550 62 184 0.0 0.0 0.00 0.00 0.00 94 1017.1
20260831083051 63 184 0.0 0.0 0.00 0.00 0.00 94 1017.0
20260831081549 63 184 0.0 0.0 0.00 0.00 0.00 94 1016.9
20260831080045 64 184 0.0 0.0 0.00 0.00 0.00 94 1016.8
20260831074542 64 184 0.0 0.0 0.00 0.00 0.00 94 1016.6
20260831073040 64 184 0.0 0.0 0.00 0.00 0.00 94 1016.5
20260831071538 65 184 0.0 0.0 0.00 0.00 0.00 94 1016.4
20260831070038 65 184 0.0 0.0 0.00 0.00 0.00 94 1016.3
20260831064535 65 184 0.0 0.0 0.00 0.00 0.00 94 1016.2
20260831063033 66 184 0.0 0.0 0.00 0.00 0.00 93 1016.2
20260831061532 66 184 0.0 0.0 0.00 0.00 0.00 93 1016.1
20260831060030 67 190 0.0 0.0 0.00 0.00 0.00 93 1016.1
20260831054528 67 190 0.0 0.0 0.00 0.00 0.00 93 1016.1
20260831053026 68 190 0.0 0.0 0.00 0.00 0.00 93 1015.9
20260831051528 68 190 0.0 0.0 0.00 0.00 0.00 93 1015.7
20260831050021 69 190 0.0 0.0 0.00 0.00 0.00 93 1015.7
20260831044521 69 236 0.0 0.0 0.00 0.00 0.00 93 1015.7
20260831043019 69 236 0.0 0.0 0.00 0.00 0.00 92 1015.8
20260831041524 69 236 0.0 0.0 0.00 0.00 0.00 92 1015.8
20260831040014 70 236 0.0 0.0 0.00 0.00 0.00 92 1015.9
20260831034513 70 236 0.0 0.0 0.00 0.00 0.00 92 1015.8
20260831033016 71 239 0.0 0.0 0.00 0.00 0.00 90 1015.7
20260831031512 71 239 0.0 0.0 0.00 0.00 0.00 89 1016.0
20260831030016 71 239 0.0 0.0 0.00 0.00 0.00 88 1015.8
20260831024512 72 239 0.0 0.0 0.00 0.00 0.00 86 1015.8
20260831023011 72 239 0.0 0.0 0.00 0.00 0.00 84 1016.0
20260831021511 72 236 0.0 0.0 0.00 0.00 0.00 82 1015.8
20260831020010 72 220 0.0 0.0 0.00 0.00 0.00 81 1015.8
20260831014509 73 217 0.0 0.0 0.00 0.00 0.00 81 1015.6
20260831013009 73 227 0.0 0.0 0.00 0.00 0.00 79 1015.6
20260831011513 73 234 0.0 0.0 0.00 0.00 0.00 77 1015.5
20260831010007 73 223 0.0 0.0 0.00 0.00 0.00 76 1015.5
20260831004506 73 227 0.0 0.0 0.00 0.00 0.00 75 1015.4
20260831003005 74 229 0.0 0.0 0.00 0.00 0.00 73 1015.3
20260831001505 74 302 0.0 0.0 0.00 0.00 0.00 72 1015.3
20260831000004 74 203 0.0 0.0 0.00 0.00 0.00 70 1015.1
20260830234504 74 252 0.0 0.0 0.00 0.00 0.00 68 1014.9
20260830233003 74 225 0.0 0.0 0.00 0.00 0.00 66 1015.0
20260830231502 75 214 0.0 0.0 0.00 0.00 0.00 65 1015.2
20260830224559 76 250 0.0 0.0 0.00 0.00 0.00 63 1015.3
20260830223102 76 223 0.0 0.0 0.00 0.00 0.00 62 1015.3
20260830221558 76 197 0.0 0.0 0.00 0.00 0.00 60 1015.4
20260830220057 77 217 0.0 0.0 0.00 0.00 0.00 59 1015.4
20260830214557 77 198 0.0 0.0 0.00 0.00 0.00 57 1015.4
20260830213056 78 229 0.0 0.0 0.00 0.00 0.00 56 1015.5
20260830211557 78 219 0.0 0.0 0.00 0.00 0.00 55 1015.4
20260830210054 78 234 0.0 0.0 0.00 0.00 0.00 53 1015.5
20260830204553 78 223 0.0 0.0 0.00 0.00 0.00 53 1015.6
20260830203114 78 255 0.0 0.0 0.00 0.00 0.00 53 1015.7
20260830201558 79 259 0.0 0.0 0.00 0.00 0.00 52 1015.7
20260830200050 79 236 0.0 0.0 0.00 0.00 0.00 51 1015.8
20260830194549 80 232 0.0 0.0 0.00 0.00 0.00 50 1016.2
20260830193048 80 252 0.0 0.0 0.00 0.00 0.00 50 1016.2
20260830191554 81 282 0.0 0.0 0.00 0.00 0.00 49 1016.4
20260830190044 81 273 0.0 0.0 0.00 0.00 0.00 50 1016.5
20260830184544 82 234 0.0 0.0 0.00 0.00 0.00 48 1016.8
20260830183043 83 226 0.0 0.0 0.00 0.00 0.00 45 1016.7
20260830181551 83 257 0.0 0.0 0.00 0.00 0.00 44 1016.8
20260830180041 83 232 0.0 0.0 0.00 0.00 0.00 43 1017.0
20260830174539 83 290 0.0 0.0 0.00 0.00 0.00 45 1017.1
20260830173050 83 231 0.0 0.0 0.00 0.00 0.00 48 1017.0
20260830171542 83 227 0.0 0.0 0.00 0.00 0.00 46 1017.3
20260830170033 82 229 0.0 0.0 0.00 0.00 0.00 46 1017.3
20260830164539 82 259 0.0 0.0 0.00 0.00 0.00 47 1017.4
20260830163027 81 301 0.0 0.0 0.00 0.00 0.00 49 1017.5
20260830161525 80 213 0.0 0.0 0.00 0.00 0.00 52 1017.6
20260830160020 79 227 0.0 0.0 0.00 0.00 0.00 52 1017.9
20260830154517 78 232 0.0 0.0 0.00 0.00 0.00 54 1017.8
20260830153013 78 194 0.0 0.0 0.00 0.00 0.00 55 1018.2
20260830151521 77 259 0.0 0.0 0.00 0.00 0.00 58 1018.4
20260830150006 76 280 0.0 0.0 0.00 0.00 0.00 60 1018.5
20260830144503 76 215 0.0 0.0 0.00 0.00 0.00 60 1018.8
20260830143115 74 230 0.0 0.0 0.00 0.00 0.00 62 1018.8
20260830141600 73 274 0.0 0.0 0.00 0.00 0.00 66 1018.9
20260830140052 71 224 0.0 0.0 0.00 0.00 0.00 71 1019.0
20260830134548 68 230 0.0 0.0 0.00 0.00 0.00 76 1019.2
20260830133102 66 274 0.0 0.0 0.00 0.00 0.00 83 1019.4
20260830131541 63 221 0.0 0.0 0.00 0.00 0.00 94 1019.4
20260830130034 61 269 0.0 0.0 0.00 0.00 0.00 96 1019.4
20260830124530 60 269 0.0 0.0 0.00 0.00 0.00 97 1019.7
20260830123028 58 272 0.0 0.0 0.00 0.00 0.00 96 1019.8
20260830121524 57 272 0.0 0.0 0.00 0.00 0.00 96 1020.0
20260830120023 56 272 0.0 0.0 0.00 0.00 0.00 96 1019.9